Location: Maiden
(35.5760°N, 81.2120°W)
Time: 03:10:43
(UTC-04:00)

Vanguard 2 - Pass Details

Date: 06 August 2020
Orbit: 553 x 2937 km, 32.9° (Epoch: 20 September)

Event Time Altitude Azimuth Distance (km) Brightness Sun altitude
Rises 20:50:48 0° 219° (SW) 6,777 12.5 -6.0°
Reaches altitude 10° 20:55:50 10° 213° (SSW) 5,739 12.1 -6.9°
Maximum altitude 21:11:10 40° 152° (SSE) 3,324 10.3 -9.7°
Drops below altitude 10° 21:22:33 10° 88° (E) 4,321 10.8 -11.7°
Enters shadow 21:24:38 - 83° (E) 4,769 11.1 -12.1°
Sets 21:25:42 0° 81° (E) 5,016 - -12.2°
